Wind_Speed
42 43 43 43 44 44 45 46 48 49 50 51 51 51 51 51 51 51 51 51 51 51 51 51 52 52 52 52 53 53 53 53 53 53 52 52 51 51 51 50 50 50 50 50 50 49 49 48 48 48 48 48
42 42 43 43 44 46 47 48 49 50 51 52 52 53 53 53 53 53 53 54 53 54 54 54 54 54 55 55 55 55 55 55 55 55 54 54 53 53 53 53 52 52 52 51 51 51 51 50 50 49 49 49
42 42 43 44 45 46 48 49 50 51 52 53 54 54 55 55 55 55 56 56 56 56 56 56 57 57 57 57 57 57 57 57 57 56 56 56 55 55 55 55 55 54 53 53 53 53 53 53 52 52 51 51
43 43 44 45 46 47 48 50 51 52 53 54 54 55 56 56 56 57 57 58 58 58 58 58 59 59 59 59 59 59 58 58 58 58 57 57 57 57 57 57 57 56 56 55 55 54 54 54 54 54 54 54
45 46 47 47 48 49 50 51 52 53 54 54 55 56 56 57 57 58 58 59 59 60 60 60 60 60 60 60 60 60 60 59 59 59 58 58 59 59 59 59 59 58 58 57 57 57 56 56 56 56 56 56
49 50 50 50 51 52 53 53 54 55 55 56 56 57 57 58 58 59 59 60 60 60 61 61 61 61 61 61 61 61 61 61 60 60 60 60 60 61 61 61 61 60 60 60 60 59 59 59 59 58 58 58
53 54 54 54 55 55 56 56 57 57 57 58 58 59 59 60 60 60 60 60 61 61 62 62 62 62 62 62 62 62 62 62 61 61 61 62 62 62 63 63 63 63 62 62 62 62 61 61 61 61 61 61
57 57 57 57 58 58 59 59 59 59 60 61 61 62 62 62 62 62 63 63 63 63 64 64 64 64 64 64 64 64 64 64 64 63 63 64 64 64 65 65 65 65 65 65 64 64 64 64 63 63 63 63
59 59 59 59 60 60 61 61 61 61 62 63 63 64 65 65 65 66 66 66 66 66 66 67 67 67 67 67 67 67 66 66 66 66 66 66 66 66 67 67 67 67 67 67 67 66 66 66 66 65 65 65
61 60 61 61 62 62 63 63 64 64 65 66 66 67 68 68 68 68 68 68 68 68 69 69 70 70 70 70 70 69 69 69 69 68 69 69 69 68 68 68 68 68 68 68 68 68 68 68 68 68 67 67
63 62 63 64 64 65 66 67 67 67 68 68 69 70 70 70 70 70 70 70 70 70 71 71 71 72 72 71 71 72 72 71 71 71 71 71 71 70 70 70 70 70 70 70 70 69 69 69 69 69 69 69
65 65 66 67 68 69 69 70 70 70 70 70 71 72 72 72 72 72 72 72 72 72 72 73 73 73 73 73 73 73 73 73 73 73 73 73 73 72 72 72 72 72 71 71 71 71 71 71 71 71 70 70
68 68 69 70 72 72 73 73 73 73 73 73 73 73 74 74 74 74 74 74 74 74 74 74 75 75 75 75 75 75 74 74 74 74 74 75 74 74 74 73 73 73 73 73 73 73 73 73 73 72 72 72
70 70 71 72 74 75 76 76 76 75 75 75 75 75 76 76 76 76 76 76 76 76 75 76 76 76 76 76 76 76 76 75 75 75 76 76 75 75 75 75 75 75 75 75 75 75 75 75 75 75 74 74
72 72 73 74 75 76 76 77 77 77 76 76 77 77 77 77 78 78 78 78 78 78 77 77 77 77 77 77 77 77 77 77 77 77 77 77 77 77 76 76 76 76 76 76 76 76 76 76 76 76 76 76
73 74 74 75 76 76 77 77 78 78 78 78 78 79 79 78 78 79 79 79 79 79 79 79 79 79 79 78 78 78 78 79 79 79 79 78 78 78 78 78 78 78 78 77 78 78 77 77 77 77 77 77
74 75 75 76 77 77 78 78 79 79 79 79 79 79 79 79 79 79 80 80 80 81 81 81 81 81 81 80 80 80 80 80 80 80 80 80 80 79 79 79 79 79 79 79 79 79 78 78 78 78 78 78
74 75 76 77 77 78 79 79 79 79 79 79 79 79 80 80 80 80 81 81 81 81 82 82 82 82 82 81 81 81 82 82 81 82 81 81 81 81 81 81 81 81 80 80 80 79 79 79 79 79 79 79
75 76 76 77 78 78 79 80 80 80 80 80 81 81 81 81 81 82 82 82 82 82 83 82 83 83 82 82 82 82 82 83 83 83 82 82 82 82 82 82 82 82 81 81 81 80 80 80 80 80 80 80
75 76 77 77 78 78 79 79 80 80 80 80 81 81 81 82 82 82 83 83 82 83 83 83 83 83 83 82 82 83 83 83 83 84 83 83 83 83 83 83 83 83 82 82 82 81 81 80 80 80 80 80
76 76 77 78 78 79 79 80 80 80 80 80 81 81 82 82 82 82 83 83 82 82 82 82 83 83 83 82 82 82 83 83 84 84 84 84 84 84 84 84 84 84 83 83 82 82 81 81 80 80 80 80
76 77 77 78 79 79 80 80 81 81 81 81 82 82 83 82 83 83 83 83 83 83 83 82 82 82 82 82 82 83 83 83 84 84 84 84 84 84 85 84 84 84 84 84 83 82 82 81 81 80 80 80
76 76 77 78 79 79 80 81 81 81 81 82 82 83 83 83 83 84 84 84 84 84 83 83 83 83 83 83 83 83 84 84 84 84 84 84 84 84 85 85 85 85 85 85 84 83 82 81 80 80 80 80
75 75 76 77 78 79 80 80 81 82 82 82 83 83 84 84 84 84 84 85 85 85 85 85 84 84 84 84 84 84 84 84 84 85 85 85 85 85 84 84 85 85 85 85 84 83 82 81 80 80 80 80
73 74 75 76 77 78 79 80 81 82 83 83 84 84 84 85 85 85 85 85 85 85 85 85 85 85 85 85 85 85 85 85 85 85 85 85 85 85 84 83 83 85 85 85 84 83 82 81 80 80 80 80
70 71 73 74 76 77 78 79 80 81 82 83 84 84 85 85 85 86 85 85 85 85 85 85 85 85 85 85 86 85 85 85 85 85 85 85 85 85 84 83 83 84 85 84 84 83 82 81 80 80 80 80
68 68 69 70 71 73 74 76 77 79 80 81 82 83 84 84 85 85 85 85 85 85 85 84 84 83 83 84 85 85 85 85 85 85 85 85 85 84 84 84 84 84 84 84 84 84 83 82 81 80 80 81
70 70 69 69 68 69 69 70 72 73 75 76 78 79 80 81 82 83 83 83 84 84 84 84 83 83 82 83 84 84 84 84 85 85 85 85 85 84 84 83 83 84 84 84 85 84 84 83 82 81 80 80
69 71 72 72 71 70 69 69 69 70 70 71 72 73 75 76 77 78 79 80 80 81 81 82 82 81 82 82 83 83 84 84 84 84 84 84 84 84 84 83 82 82 83 83 84 85 84 84 83 82 82 81
63 66 69 71 73 73 73 72 71 71 70 70 70 71 72 73 75 75 76 77 78 79 79 79 79 80 80 81 81 82 82 83 83 83 83 83 83 83 84 84 83 82 81 82 83 84 84 84 84 83 83 83
62 63 65 67 70 72 74 75 75 75 74 73 73 73 73 74 75 76 76 77 78 78 78 78 78 78 79 80 80 80 81 81 82 82 82 82 82 82 82 83 83 82 81 81 81 82 83 84 85 85 84 84
Wind_Direction
270 270 269 268 266 265 263 261 260 258 258 258 258 259 259 259 260 260 260 261 261 261 262 262 263 263 264 264 264 265 265 266 267 268 268 268 268 267 267 266 265 265 264 263 263 262 261 259 258 257 257 256
269 268 267 266 265 264 263 262 262 261 260 260 260 260 261 261 262 262 262 262 262 263 263 263 264 264 264 265 265 266 266 267 268 268 269 269 268 268 267 266 265 265 264 264 263 263 262 261 260 258 257 257
268 267 266 265 264 263 263 262 262 261 261 261 261 261 261 262 262 262 263 263 263 263 264 264 264 264 265 265 265 266 266 267 267 268 268 268 267 267 266 266 265 264 264 263 262 262 262 261 260 259 258 257
267 267 266 265 264 264 263 263 262 261 261 261 261 261 261 262 262 263 263 263 263 263 264 264 264 265 265 265 265 265 266 266 266 266 266 266 266 265 265 264 264 263 263 262 262 261 261 261 260 260 259 258
267 267 266 265 265 264 264 263 263 263 262 262 262 262 262 262 262 263 263 264 264 264 264 264 264 265 265 265 265 265 265 265 265 265 265 265 264 264 264 264 264 263 263 263 262 262 261 261 260 260 259 259
268 267 267 266 266 265 265 264 264 264 264 264 264 264 263 263 263 263 264 264 264 264 264 264 264 265 265 265 265 265 265 265 264 264 264 264 264 264 264 264 264 264 264 263 263 262 262 261 261 261 260 260
269 268 268 268 267 267 266 266 265 266 266 266 266 265 265 265 265 265 265 265 265 265 265 265 265 265 265 265 265 265 265 265 264 264 264 264 264 264 264 264 264 264 264 263 263 263 263 262 262 261 261 261
271 270 270 270 269 268 268 268 268 268 268 267 267 267 267 266 266 266 266 266 266 266 266 266 266 266 265 265 265 265 265 265 265 264 264 264 264 264 264 264 264 264 264 264 263 263 263 263 262 262 262 262
273 272 272 271 271 271 270 270 270 269 269 269 269 268 267 267 267 266 266 266 267 267 267 266 266 266 266 266 266 265 265 265 265 265 264 264 264 264 264 264 264 264 264 264 264 264 263 263 263 262 262 262
274 274 274 273 272 272 271 271 270 270 270 269 269 268 268 267 267 267 267 267 267 267 267 267 267 267 267 266 266 266 266 265 265 265 264 264 264 264 264 264 264 264 264 264 264 264 264 264 263 263 262 262
276 275 274 273 272 271 271 270 270 269 269 269 269 269 269 269 269 268 268 268 268 268 267 267 267 267 267 267 266 266 266 265 265 265 265 264 264 264 264 264 264 264 264 264 264 264 263 263 263 263 262 262
275 274 273 272 271 270 270 269 269 269 269 269 269 270 270 270 269 269 268 268 268 268 267 267 267 267 266 266 266 266 266 266 265 265 265 264 264 264 264 263 263 263 263 263 263 263 262 262 262 261 261 261
273 272 271 271 270 270 269 269 269 269 269 269 269 269 269 269 269 268 268 268 267 267 267 266 266 266 266 266 265 265 265 265 265 264 264 264 264 263 263 263 262 262 262 262 262 262 261 261 261 260 260 260
272 271 271 270 270 270 270 270 269 269 268 268 268 268 268 268 268 267 267 267 266 266 266 266 265 265 265 265 265 265 265 264 264 264 264 263 263 263 262 262 262 261 261 261 261 261 261 261 260 260 260 260
272 271 270 270 270 270 270 269 269 268 268 267 267 266 266 267 267 267 266 266 266 265 265 265 264 264 264 264 264 264 264 264 263 263 263 263 262 262 262 262 261 261 261 260 260 260 260 260 260 260 260 260
271 270 270 269 269 269 269 268 268 268 267 267 267 266 266 266 266 266 266 266 265 265 265 264 264 264 264 264 264 263 263 263 263 263 263 262 262 262 261 261 261 261 260 260 260 260 259 259 259 259 259 259
270 270 269 269 269 269 268 268 268 268 268 267 267 267 267 266 266 266 265 265 265 265 264 264 264 264 264 263 263 263 263 263 263 262 262 262 262 261 261 261 260 260 260 260 260 260 260 259 259 259 259 259
271 270 270 270 269 269 269 269 269 269 268 268 268 267 267 267 266 266 265 265 265 264 264 264 264 264 263 263 263 263 263 262 262 262 262 261 261 261 261 260 260 260 260 260 260 260 259 259 259 259 259 259
273 272 272 271 271 270 270 270 269 269 269 268 268 267 267 267 266 266 265 265 265 264 264 264 263 263 263 263 262 262 262 262 262 261 261 261 261 260 260 260 260 260 260 259 259 259 259 259 259 258 258 258
275 274 274 273 273 272 271 271 270 270 269 269 268 267 267 266 266 265 265 265 264 264 264 263 263 263 262 262 262 262 261 261 261 261 261 260 260 260 260 260 260 259 259 259 259 258 258 258 258 258 258 258
276 275 274 274 273 273 272 271 271 270 270 269 268 268 267 266 266 265 265 265 264 264 263 263 263 262 262 261 261 261 261 260 260 260 260 260 260 259 259 259 259 259 259 258 258 258 258 258 258 258 257 257
275 275 274 274 273 273 272 271 271 270 269 269 268 268 267 267 266 266 265 265 264 264 263 263 263 262 262 262 261 260 260 260 260 260 260 259 259 259 259 259 259 259 258 258 258 258 258 258 258 257 257 257
274 274 274 273 273 272 272 271 271 270 269 269 268 268 267 267 266 266 265 265 264 264 264 263 263 262 262 262 261 261 260 260 260 260 259 259 259 259 259 259 259 259 258 258 258 258 257 257 257 257 257 257
273 273 273 273 272 272 271 271 271 270 269 269 268 268 267 267 266 266 266 265 265 264 264 264 263 263 262 262 261 261 261 260 260 260 259 259 259 259 259 259 258 258 258 257 257 257 257 257 256 256 256 256
273 272 272 272 271 271 271 271 270 270 270 269 269 268 268 268 267 267 266 266 266 265 265 264 264 263 263 262 262 261 261 261 260 260 259 259 259 258 258 258 258 258 257 257 257 256 256 255 255 255 254 254
272 272 272 271 271 271 270 270 270 270 269 269 269 269 268 268 268 267 267 267 266 266 265 265 264 264 263 263 262 261 261 260 260 259 259 259 258 258 258 257 257 257 257 256 256 255 254 254 254 253 253 252
272 272 272 272 271 271 271 271 271 270 270 269 269 269 268 268 268 267 267 267 266 266 265 265 264 264 263 263 262 261 261 260 260 259 259 259 258 258 258 257 257 257 257 256 255 255 254 253 252 252 251 251
274 273 272 271 271 271 271 271 271 271 271 271 270 270 269 269 268 268 267 267 266 266 265 265 264 263 263 263 262 262 261 260 260 260 259 259 259 258 258 257 257 257 257 256 255 254 253 252 251 250 250 250
276 275 273 272 271 271 270 270 271 271 271 271 272 271 271 271 270 269 269 268 267 267 266 265 264 264 264 263 263 262 261 260 261 261 260 260 259 259 258 257 257 257 257 256 255 254 253 252 251 250 249 248
282 279 277 275 274 272 272 271 271 271 271 272 273 273 273 273 273 272 271 271 270 269 268 267 266 266 265 265 264 263 262 262 261 261 261 260 260 259 258 257 256 256 256 256 256 255 254 252 251 250 249 248
289 286 283 281 279 277 275 274 273 272 272 272 273 273 274 274 274 274 274 273 273 272 271 270 269 269 268 267 267 266 265 264 263 262 261 261 260 259 258 257 256 255 255 255 255 255 254 253 252 250 249 248
Height
5785 5784 5784 5784 5783 5783 5782 5782 5782 5781 5781 5781 5781 5781 5781 5782 5782 5783 5783 5783 5784 5784 5784 5784 5784 5784 5784 5784 5784 5784 5784 5784 5784 5785 5786 5786 5786 5787 5787 5788 5789 5789 5790 5791 5792 5792 5793 5794 5795 5796 5797 5797
5780 5780 5779 5778 5778 5777 5776 5776 5776 5776 5776 5776 5776 5776 5776 5776 5776 5777 5776 5777 5777 5777 5777 5777 5777 5777 5777 5777 5777 5778 5778 5778 5778 5779 5779 5779 5780 5780 5780 5781 5782 5783 5784 5785 5785 5786 5787 5788 5789 5790 5791 5792
5776 5775 5774 5773 5772 5772 5771 5771 5771 5770 5770 5770 5770 5770 5770 5770 5771 5770 5770 5770 5771 5771 5771 5771 5771 5771 5771 5771 5771 5771 5772 5772 5772 5772 5772 5772 5773 5773 5774 5774 5775 5776 5777 5778 5779 5779 5780 5781 5782 5783 5784 5785
5771 5770 5769 5768 5767 5766 5766 5765 5765 5765 5764 5764 5764 5764 5764 5765 5765 5764 5763 5763 5764 5765 5764 5764 5764 5764 5764 5764 5765 5765 5765 5765 5766 5766 5766 5766 5766 5766 5767 5767 5768 5769 5770 5771 5772 5773 5773 5774 5775 5776 5777 5778
5765 5764 5764 5762 5761 5761 5760 5759 5759 5758 5758 5758 5758 5758 5758 5759 5758 5758 5757 5757 5758 5758 5758 5758 5758 5758 5758 5758 5758 5758 5758 5758 5758 5759 5759 5759 5759 5759 5760 5760 5761 5762 5762 5763 5764 5765 5766 5767 5768 5769 5770 5771
5759 5758 5758 5756 5755 5755 5754 5754 5753 5753 5753 5752 5751 5751 5752 5752 5751 5752 5752 5751 5751 5751 5751 5751 5751 5751 5751 5751 5750 5751 5751 5751 5751 5751 5752 5752 5752 5752 5752 5752 5753 5754 5754 5755 5756 5757 5758 5759 5760 5761 5762 5763
5753 5752 5751 5750 5749 5749 5748 5747 5747 5747 5746 5746 5745 5745 5745 5745 5745 5745 5745 5744 5744 5744 5743 5743 5743 5743 5743 5743 5743 5743 5743 5743 5744 5744 5744 5744 5744 5744 5744 5745 5745 5746 5747 5747 5748 5749 5750 5751 5752 5753 5754 5755
5746 5745 5745 5743 5742 5742 5741 5740 5741 5741 5739 5738 5738 5738 5737 5737 5737 5737 5737 5737 5736 5736 5736 5735 5735 5735 5735 5735 5735 5735 5735 5735 5736 5736 5736 5736 5736 5737 5737 5737 5737 5738 5739 5739 5740 5741 5742 5743 5744 5745 5745 5747
5739 5739 5738 5736 5735 5734 5733 5733 5733 5733 5732 5731 5730 5729 5729 5729 5729 5729 5729 5729 5729 5728 5727 5726 5726 5726 5726 5726 5727 5727 5727 5728 5728 5728 5729 5729 5729 5729 5729 5729 5730 5730 5730 5731 5732 5733 5734 5735 5736 5737 5738 5738
5733 5732 5730 5729 5727 5726 5726 5726 5726 5726 5724 5722 5721 5720 5720 5721 5721 5721 5721 5721 5720 5719 5718 5718 5717 5717 5718 5718 5718 5718 5719 5719 5720 5720 5720 5720 5720 5721 5721 5722 5722 5722 5723 5723 5724 5725 5726 5726 5728 5729 5730 5731
5726 5725 5722 5720 5719 5718 5717 5717 5718 5717 5715 5713 5712 5712 5712 5713 5714 5714 5713 5713 5712 5711 5711 5710 5709 5709 5709 5709 5709 5709 5710 5710 5711 5711 5711 5711 5712 5713 5713 5714 5714 5714 5715 5715 5716 5717 5718 5719 5720 5721 5721 5722
5718 5715 5713 5711 5710 5709 5708 5708 5709 5709 5708 5706 5705 5704 5704 5704 5705 5705 5704 5704 5704 5703 5702 5701 5701 5701 5700 5700 5700 5700 5701 5702 5702 5702 5701 5702 5703 5704 5704 5705 5706 5707 5707 5708 5709 5709 5710 5711 5712 5713 5714 5715
5708 5705 5703 5701 5700 5700 5700 5700 5701 5701 5700 5699 5698 5697 5696 5696 5696 5696 5695 5695 5695 5694 5693 5692 5692 5691 5691 5691 5691 5692 5693 5693 5692 5691 5691 5693 5694 5695 5695 5696 5697 5698 5699 5699 5701 5701 5702 5703 5704 5705 5706 5707
5698 5696 5694 5692 5691 5691 5691 5691 5692 5692 5692 5691 5690 5688 5686 5686 5686 5686 5685 5685 5685 5684 5684 5683 5682 5682 5681 5682 5683 5683 5683 5683 5682 5682 5682 5683 5684 5685 5686 5687 5688 5689 5690 5691 5692 5693 5693 5694 5695 5696 5697 5699
5688 5687 5685 5683 5682 5681 5681 5681 5681 5681 5682 5681 5680 5678 5677 5677 5677 5676 5675 5675 5674 5674 5674 5673 5673 5672 5672 5673 5673 5673 5672 5672 5672 5672 5673 5674 5674 5675 5676 5677 5678 5679 5680 5681 5682 5683 5685 5685 5686 5687 5688 5689
5678 5676 5675 5674 5673 5672 5671 5670 5670 5670 5672 5671 5668 5667 5667 5668 5668 5665 5664 5664 5664 5663 5663 5663 5663 5662 5663 5664 5664 5663 5662 5662 5662 5663 5663 5663 5664 5665 5667 5667 5668 5669 5670 5671 5672 5674 5675 5676 5677 5678 5679 5680
5669 5667 5665 5664 5664 5663 5661 5660 5660 5661 5662 5661 5659 5658 5657 5658 5658 5655 5654 5654 5653 5653 5653 5652 5652 5652 5653 5654 5654 5652 5651 5651 5652 5652 5653 5653 5654 5655 5656 5657 5657 5658 5660 5661 5662 5664 5665 5666 5668 5668 5670 5671
5659 5658 5656 5655 5654 5653 5651 5651 5651 5651 5651 5651 5649 5648 5647 5647 5647 5644 5643 5643 5643 5642 5642 5642 5641 5641 5642 5643 5642 5641 5640 5641 5641 5641 5642 5643 5644 5645 5645 5646 5647 5648 5650 5651 5652 5653 5654 5656 5657 5658 5660 5661
5650 5648 5646 5645 5644 5643 5641 5641 5641 5641 5641 5640 5638 5637 5636 5636 5636 5633 5631 5632 5632 5630 5630 5631 5630 5630 5631 5632 5631 5630 5629 5629 5629 5629 5631 5632 5633 5633 5634 5635 5636 5637 5639 5640 5642 5643 5644 5646 5647 5648 5650 5651
5641 5639 5637 5635 5634 5633 5631 5630 5630 5630 5629 5628 5626 5625 5624 5624 5624 5621 5620 5620 5620 5618 5618 5618 5618 5618 5620 5620 5620 5618 5617 5617 5617 5618 5620 5620 5621 5622 5623 5624 5625 5626 5627 5629 5630 5632 5633 5635 5636 5637 5639 5640
5631 5629 5627 5625 5624 5622 5621 5619 5619 5619 5618 5617 5615 5613 5613 5613 5612 5610 5608 5609 5609 5607 5606 5606 5606 5606 5607 5608 5608 5606 5605 5605 5605 5607 5608 5608 5609 5610 5612 5612 5613 5614 5615 5617 5619 5621 5622 5623 5625 5626 5628 5629
5621 5619 5617 5615 5613 5611 5610 5608 5608 5608 5607 5605 5604 5602 5601 5601 5600 5598 5597 5597 5597 5596 5595 5595 5595 5595 5596 5596 5595 5594 5594 5594 5594 5595 5596 5597 5597 5598 5600 5601 5601 5602 5603 5604 5607 5610 5611 5612 5613 5615 5616 5617
5610 5608 5606 5604 5602 5600 5598 5597 5596 5596 5595 5594 5592 5590 5589 5589 5588 5587 5585 5585 5585 5584 5583 5583 5583 5584 5584 5583 5583 5582 5582 5582 5582 5583 5584 5585 5586 5586 5588 5589 5590 5590 5590 5592 5596 5598 5600 5601 5602 5603 5605 5606
5600 5598 5595 5593 5591 5589 5587 5585 5583 5582 5582 5581 5580 5578 5577 5576 5575 5574 5574 5573 5572 5572 5571 5572 5572 5572 5572 5571 5570 5570 5570 5570 5570 5571 5571 5572 5574 5575 5576 5577 5577 5577 5578 5581 5584 5586 5588 5589 5591 5592 5594 5595
5589 5587 5585 5582 5580 5578 5575 5573 5572 5570 5569 5568 5567 5565 5564 5564 5563 5562 5562 5561 5560 5560 5559 5560 5560 5560 5560 5558 5558 5558 5559 5559 5558 5558 5559 5560 5562 5564 5565 5565 5564 5563 5566 5570 5572 5574 5576 5578 5579 5581 5582 5584
5579 5577 5574 5572 5570 5568 5565 5563 5561 5559 5558 5556 5555 5554 5552 5551 5550 5549 5549 5548 5548 5548 5547 5548 5549 5548 5547 5545 5545 5546 5547 5547 5547 5546 5547 5549 5551 5552 5552 5553 5552 5551 5553 5557 5559 5561 5565 5567 5567 5569 5570 5572
5569 5567 5564 5562 5559 5557 5555 5553 5551 5549 5547 5546 5544 5543 5541 5540 5538 5537 5537 5536 5535 5535 5535 5536 5537 5537 5535 5532 5532 5534 5534 5534 5534 5534 5536 5537 5538 5539 5540 5541 5541 5540 5540 5543 5546 5548 5552 5555 5556 5558 5558 5560
5560 5557 5554 5552 5549 5547 5545 5543 5540 5538 5537 5535 5533 5532 5530 5528 5526 5526 5526 5524 5523 5523 5523 5524 5525 5524 5522 5520 5519 5521 5522 5522 5522 5522 5524 5524 5525 5527 5529 5530 5530 5529 5529 5530 5533 5535 5539 5542 5544 5547 5548 5550
5550 5548 5545 5542 5539 5537 5534 5532 5529 5528 5526 5525 5522 5521 5520 5517 5515 5514 5514 5513 5511 5511 5511 5512 5512 5512 5510 5508 5507 5508 5510 5510 5510 5510 5511 5511 5512 5514 5516 5518 5519 5519 5517 5517 5520 5522 5526 5529 5531 5535 5537 5539
5541 5538 5535 5532 5529 5527 5524 5522 5519 5517 5515 5513 5511 5510 5508 5506 5504 5503 5502 5501 5499 5499 5499 5500 5500 5500 5498 5496 5496 5496 5497 5497 5498 5498 5499 5499 5500 5501 5502 5505 5508 5508 5507 5506 5507 5508 5512 5516 5518 5522 5525 5526
5532 5528 5525 5522 5519 5517 5514 5512 5509 5507 5505 5503 5500 5498 5497 5494 5492 5491 5490 5489 5487 5487 5487 5488 5488 5487 5485 5484 5484 5484 5485 5485 5485 5486 5486 5486 5487 5488 5489 5491 5494 5496 5496 5496 5496 5496 5499 5502 5504 5508 5511 5513